Zurück zum Katalog

BREEZE-M R/B

AktivHEO
NORAD 36587·ROCKET BODY·🇷🇺 Russia

Gestartet Dec 29, 2009 von Baikonur Cosmodrome

Loading…

Nächste Überflüge (nächste 24 Stunden)

TLE

AktuellSource: Space-Track

Epoche: Sep 14, 2026, 03:50 UTC

1 36587U 09075B   26257.16002096 -.00000190  00000-0  00000-0 0  9997
2 36587  21.4982 304.2037 5764629 127.9030 330.7622  1.99403210118885

Verfolge BREEZE-M R/B in Echtzeit mit AllMySat

Download on the App Store